Location: Julian California
(33.0790°N, 116.6010°W)
Time: 15:09:58
(UTC-07:00)

Daily predictions for brighter satellites

Satellite Brightness Start Highest point End
(mag) Time Altitude Azimuth Time Altitude Azimuth Time Altitude Azimuth
Atlas Centaur 2 2.3 19:03:10 10° W 19:07:11 47° S 19:12:10 10° ESE
Cosmos 1302 Rocket 4.4 19:03:08 10° S 19:08:00 42° ESE 19:12:53 10° NNE
Cosmos 1331 Rocket 4.1 19:03:15 10° SSW 19:08:32 87° ESE 19:13:51 10° NNE
Hubble Space Telescope 2.1 19:06:12 10° SW 19:09:43 27° SSE 19:13:12 10° ESE
Cosmos 1315 Rocket 4.1 19:06:37 10° NNE 19:09:52 22° ENE 19:13:06 10° SE
Tiangong 2 1.1 19:11:02 10° WNW 19:14:12 72° NNE 19:17:21 10° ESE
CZ-4 R/B 2.7 19:12:10 10° S 19:16:08 45° W 19:20:02 10° NNW
NOAA 12 4.3 19:12:16 10° S 19:17:29 79° WSW 19:22:43 10° NNW
Cosmos 1400 Rocket 2.7 19:15:33 10° N 19:19:30 74° E 19:23:22 10° SSE
Cosmos 1656 3.8 19:17:03 10° N 19:22:26 52° ENE 19:27:50 10° SE
ASTRO E2 2.8 19:19:03 10° WSW 19:23:01 65° S 19:26:43 12° E
Cosmos 1697 Rocket 3.4 19:19:03 10° N 19:24:05 33° ENE 19:29:05 10° SE
Envisat 3.5 19:21:38 10° SE 19:26:19 40° ENE 19:31:02 10° N
Delta 142 4.5 19:23:24 10° SW 19:26:58 29° SSE 19:30:06 12° ESE
FREGAT/IRIS 3.7 19:25:08 10° SE 19:27:32 24° ENE 19:29:57 10° NNE
NOSS 2 (A) 4.0 19:27:23 10° NNW 19:29:44 89° SE 19:32:25 10° SSE
Cosmos 1544 Rocket 3.4 19:26:55 10° S 19:31:11 69° E 19:35:30 10° NNE
Cosmos 1378 3.8 19:28:24 10° NNE 19:31:46 32° E 19:35:05 10° SE
SPOT 3 Rocket 3.8 19:26:58 10° SE 19:31:50 46° ENE 19:36:43 10° N
Meteosat 1 Rocket2 4.0 19:31:34 10° SW 19:34:54 29° SSE 19:37:56 15° ESE
USA 186 3.9 19:36:20 12° ENE 19:36:20 12° ENE 19:37:14 10° NE
GP-B 4.2 19:32:44 10° NNE 19:36:15 23° E 19:39:45 10° SE
Meteor 1-21 4.4 19:31:19 10° N 19:37:01 79° W 19:42:45 10° S
Meteor 1-15 Rocket 4.4 19:34:35 10° S 19:40:17 56° E 19:46:04 10° NNE
Cosmos 1544 4.0 19:40:14 10° SSE 19:43:22 27° E 19:46:31 10° NNE
EO 1 Del DPAF 3.9 19:47:20 10° NE 19:50:43 30° E 19:54:06 10° SSE
Cosmos 2344 3.9 19:46:34 10° SW 19:54:13 70° WNW 20:02:10 10° NNE
Cosmos 2034 Rocket 3.9 19:49:26 10° N 19:55:36 67° E 20:01:47 10° SSE
Cosmos 1486 Rocket 4.3 19:51:56 10° N 19:56:56 45° ENE 20:00:16 20° SE
Tsikada Rocket 3.9 19:52:11 10° S 19:58:15 67° E 20:04:23 10° NNE
COSMOS 2487 3.8 19:56:35 10° SSE 20:04:21 - NNE 19:58:13 22° SSE
Resurs 01 Rocket 3.2 20:07:07 19° NE 20:07:07 19° NE 20:09:27 10° NNE
OAO 1 Rocket 4.4 20:01:36 10° WNW 20:06:58 84° N 20:09:32 31° E
COSMOS 2455 3.9 20:02:13 10° SSE 20:14:33 - NE 20:05:32 23° SE
Cosmos 1707 2.7 20:04:49 10° N 20:08:34 53° E 20:09:43 37° SE
Cosmos 2082 Rocket 3.6 20:03:21 10° SW 20:08:39 40° WNW 20:13:57 10° N
IRAS Rocket 4.5 20:13:39 31° ESE 20:15:45 45° ENE 20:20:57 10° N
CZ-2D R/B 3.8 20:19:33 11° S 20:23:17 57° W 20:27:07 10° NNW
SL-24 R/B - RUBIN 2 3.6 20:23:31 10° SSW 20:28:26 63° ESE 20:29:33 47° ENE
Cosmos 1602 Rocket 3.4 20:25:12 10° N 20:29:42 87° E 20:31:14 41° S
Cosmos 1980 Rocket 2.0 20:28:02 10° NNW 20:33:40 75° ENE 20:35:19 47° SE
Delta 168 4.2 20:30:24 10° SW 20:33:14 29° S 20:33:14 29° S
Thor Agena Rocket 4.0 20:32:52 10° NNE 20:36:44 42° ENE 20:36:44 42° ENE
YAOGAN 6 3.8 20:39:40 28° SW 20:40:59 40° W 20:44:23 10° NNW
BREEZE M DEB (TANK) 3.5 20:33:20 10° NW 20:42:49 48° WSW 20:43:57 38° SSW
Cosmos 1503 Rocket 3.9 20:37:59 10° N 20:43:14 65° ENE 20:43:15 65° ENE
SJ-6B 3.9 20:46:03 35° SW 20:46:51 41° W 20:50:26 10° NNW
Meteor 2-5 Rocket 3.7 20:42:27 10° N 20:48:26 81° E 20:49:48 55° SSE
Resurs 1-3 4.3 20:50:14 44° N 20:50:14 44° N 20:53:17 10° N
Hubble Space Telescope 2.2 20:46:40 10° WSW 20:49:10 31° SW 20:49:10 31° SW
Tiangong 2 4.1 20:49:15 10° WSW 20:50:02 12° SW 20:50:02 12° SW
SL-16 R/B 3.4 20:46:28 10° N 20:49:58 28° NE 20:49:58 28° NE
USA 229 DEB 4.2 20:47:30 10° S 21:02:29 - NE 20:51:41 39° S
USA 229 4.3 20:47:36 10° S 21:02:41 - NE 20:51:36 37° S
Meteor 1-22 Rocket 4.2 20:51:34 21° S 20:55:44 86° E 21:01:46 10° N
Atlas Centaur 2 3.6 20:52:00 10° WSW 20:55:53 23° SSW 20:55:58 23° SSW
Cosmos 2084 4.4 20:52:16 10° NW 20:55:05 42° WNW 20:55:05 42° WNW
Cosmos 2322 Rocket 3.4 20:55:20 10° N 20:58:42 28° NNE 20:58:42 28° NNE
Cosmos 1939 Rocket 4.4 21:02:25 32° WSW 21:03:02 34° W 21:06:49 10° NNW
ASTRO E2 4.4 20:59:29 10° W 21:01:36 29° WSW 21:01:36 29° WSW
H-2A R/B 4.0 21:06:46 17° NNE 21:06:46 17° NNE 21:08:02 10° N
Cosmos 1697 Rocket 4.5 21:03:14 10° NW 21:07:51 27° WSW 21:11:46 13° SSW
Cosmos 1354 Rocket 4.3 21:06:33 10° NNW 21:11:15 63° WNW 21:11:15 63° WNW
USA 234 3.5 21:15:54 55° NNE 21:15:54 55° NNE 21:22:00 10° NNW
Meteor 1-24 Rocket 4.1 21:16:01 10° N 21:21:17 67° NW 21:21:17 67° NW
BREEZE-M DEB (TANK) 4.5 21:20:53 10° WSW 21:27:39 29° NW 21:27:54 29° NW
Timation 2 Rocket 4.3 21:22:52 10° SSW 21:29:36 72° WNW 21:36:29 10° NNE
Resurs 01 Rocket 4.1 21:44:42 19° NW 21:44:42 19° NW 21:46:19 10° NW
